Torna al catalogo

STARLINK-4758

AttivoComunicazioniVLEO
NORAD 53820·PAYLOAD·🇺🇸 United States

Lanciato Sep 19, 2022 da Cape Canaveral Space Force Station

Loading…

Prossimi Passaggi (prossime 24 ore)

TLE

AggiornatoSource: CelesTrak SupGP

Epoca: Sep 14, 2026, 21:50 UTC

1 53820C 22114C   26257.91020833 -.00017553  00000+0 -50273-3 0  2575
2 53820  53.1590 166.2429 0003165 110.0190  67.1297 15.35370814    10

Traccia STARLINK-4758 in tempo reale con AllMySat

Download on the App Store